Laman API Video Percuma Terbaik

AVDBAPI.COM

Cari katalog, semak rekod, dan salin URL API bersih daripada papan pemuka pantas.

Telegram Join Our Telegram Community for Updates!
Today
0
Kemaskini Hari Ini
Censored
314089
Censored Videos
Total
474268
Total Videos

Senarai Video

Rekod terkini disusun mengikut masa kemas kini.

ID Nama CODE Kategori Dikemaskini API
263990 061521-01 Instruktur Aromaterapi Cantik Menyembuhkan Hati dan Batangku 061521-01 Tanpa sensor 2025-08-29 01:16:40 API
263989 111616-004 Resume Bogel Maki Hojo 111616-004 Tanpa sensor 2025-08-29 01:16:30 API
263988 FC2-PPV-4500781 [Face] 70% daya tarikan lelaki matang. Tubuh yang mantap sedang mengawan, kehidupan yang dinamik dan harmoni. ③Berada dalam latar estetika zaman moden FC2-PPV-4500781 Tanpa sensor 2025-08-29 01:16:20 API
263987 C0930-KI211026 Naomi Wakui Wanita Matang 40 Tahun C0930-KI211026 Tanpa sensor 2025-08-29 01:16:10 API
263986 031222-001-2 Tak tahan nak masukkan! Pembantu rumah berpunggung seksi Hinata 031222-001-2 Tanpa sensor 2025-08-29 01:16:00 API
263985 H4610-KI220630 Gadis Cantik 24 Tahun Rimi Yano H4610-KI220630 Tanpa sensor 2025-08-29 01:15:50 API
263984 XSJKY097 Balasan Si Pengemis XSJKY097 AV Cina 2025-08-29 01:15:40 API
263983 092420_001 Ciuman Mengghairahkan dan Keintiman Fizikal Bersama Wanita Kaya Maki Koizumi 092420_001 Tanpa sensor 2025-08-29 01:15:30 API
263982 SR025 Rekod Pengambilan Graduan Baharu No.025 Yuko [Rakaman Peribadi] SR025 Tanpa sensor 2025-08-29 01:15:20 API
263981 H-220329 Takako Oishi Wanita 30 Tahun H-220329 Tanpa sensor 2025-08-29 01:15:10 API
263980 030221-441 Panggil servis datang, rupa-rupanya sepupu sendiri yang muncul! 030221-441 Tanpa sensor 2025-08-29 01:15:00 API
263979 HEYZO-2707 Ayane Sakurai [Ayane so much] Ayane Sakurai dijadikan alat mainan! HEYZO-2707 Tanpa sensor 2025-08-29 01:14:50 API
263978 PME096 Servis Tambahan Gadis Penghantar Makanan: Rahsia Populariti Penghantar Makanan No. 1 PME096 AV Cina 2025-08-29 01:14:40 API
263977 061721-01 Gatjiri ~ Terus-menerus diperas sampai lubang dubur tak henti berdenyut ~ 061721-01 Tanpa sensor 2025-08-29 01:14:30 API
263976 031522-001 Koleksi Terbaik Reina Hiiragi 031522-001 Tanpa sensor 2025-08-29 01:14:20 API
263975 CARIBBEANCOMPR-111816_003 8 wanita matang cantik yang tenggelam dalam perselingkuhan dengan bos mereka CARIBBEANCOMPR-111816_003 Tanpa sensor 2025-08-29 01:14:10 API
263974 H-220630 Rimi Yano H-220630 Tanpa sensor 2025-08-29 01:14:00 API
263973 CUS-1834 Kawan Baik Isteri Meminjam Rahim Untuk Melahirkan Anak CUS-1834 AV Cina 2025-08-29 01:13:50 API
263972 C0930-KI211028 Wanita Cantik Taeko Kashiya Berusia 28 Tahun C0930-KI211028 Tanpa sensor 2025-08-29 01:13:40 API
263971 HEYZO-2720 Mei [Mei] Kawasan Larangan: Tempat guru HEYZO-2720 Tanpa sensor 2025-08-29 01:13:30 API
263970 092620_001 Wanita yang menggoda lelaki dengan payudara dingin yang menggoda 092620_001 Tanpa sensor 2025-08-29 01:13:20 API
263969 FC2-PPV-4500545 Harga terhad 3 hari sahaja 1980pt! Kunana [Siri Fesyen] Wanita cantik dengan 3 payudara besar! Video baru sentiasa diterbitkan! [Loceng jam 3:30 pagi] Beli sekarang FC2-PPV-4500545 Tanpa sensor 2025-08-29 01:13:10 API
263968 H0930-KI220331 Mayumi Aiba Berusia 40 Tahun Yang Seksi H0930-KI220331 Tanpa sensor 2025-08-29 01:13:00 API
263967 061821-01 Aku akan emut sampai ke pangkal tekak kau 061821-01 Tanpa sensor 2025-08-29 01:12:50 API
263966 030421-442 Buku Foto Puki Isteri Orang Edisi Deluxe 030421-442 Tanpa sensor 2025-08-29 01:12:40 API
263965 CUS-1833 Episod Tambahan ep28 Ayah Sedang Sangat Marah CUS-1833 AV Cina 2025-08-29 01:12:30 API
263964 WPSL-080 Pemangsa Puting Terbalik di Restoran @Hazuki Mion WPSL-080 Mosaik 2025-08-29 01:12:20 API
263963 C0930-TK0045 Gadis Seksi 28 Tahun Aoi Katsuse C0930-TK0045 Tanpa sensor 2025-08-29 01:12:10 API
263962 111816-002 Temubual Amatir - Tak boleh terus shoot ke? Saya betul-betul nak duit ~ 111816-002 Tanpa sensor 2025-08-29 01:12:00 API
263961 H4610-KI220702 Pakej Emas: Gadis 20 Tahun Yang Menggiurkan H4610-KI220702 Tanpa sensor 2025-08-29 01:11:50 API
263960 FC2-PPV-4501794 Gadis Menhera Berpijama Bricco Mitsuha (20) - Payudara Putih Cantik FC2-PPV-4501794 Tanpa sensor 2025-08-29 01:11:40 API
263959 RED-11492: Chisato Mukai RED-114-B Tanpa sensor 2025-08-29 01:11:30 API
263958 XSJYH06 Tukang cuci tak mahu balik rumah dan menunggu untuk dikongkek oleh saya XSJYH06 AV Cina 2025-08-29 01:11:20 API
263957 031822-001 Pelayan nakal Aya Tanaka sudah tiba! Dia akan biarkan anda buat apa sahaja pada dirinya! 031822-001 Tanpa sensor 2025-08-29 01:11:10 API
263956 030621-443 Wanita Matang Tanpa Solekan ~ Mak Cik Berwajah Dingin ~ 030621-443 Tanpa sensor 2025-08-29 01:11:00 API
263955 092920_001 Temujanji Mengghairahkan: Terus Tunggang Teman Wanita yang Mencurigakan! 092920_001 Tanpa sensor 2025-08-29 01:10:50 API
263954 061921-01 Cara gadis ini bekerja - Tolong ukur payudara E-cup yang melimpah ini - 061921-01 Tanpa sensor 2025-08-29 01:10:40 API
263953 HEYZO-2708 Asaka Sera [Asaka Sera] Terjerumus dalam hubungan liar dengan OL montok yang pandai menghisap HEYZO-2708 Tanpa sensor 2025-08-29 01:10:30 API
263952 C0930-KI211031 Wanita Matang Seksi Berusia 42 Tahun Yukie Toyoda C0930-KI211031 Tanpa sensor 2025-08-29 01:10:20 API
263951 FSOG113 Teknisi Jepun Berdada Besar Dikongkek FSOG113 AV Cina 2025-08-29 01:10:10 API
263950 H4610-ORI1784 Gadis Cantik Sayaka Miyama Berusia 22 Tahun H4610-ORI1784 Tanpa sensor 2025-08-29 01:10:00 API
263949 031922-001 Seks Champagne Panas! Creampie Anri Kizuki dalam Malam yang Mengghairahkan! 031922-001 Tanpa sensor 2025-08-29 01:09:50 API
263948 H0930-KI220403 Matsui Kana Umur 25 Tahun H0930-KI220403 Tanpa sensor 2025-08-29 01:09:40 API
263947 111816-006 Boynsle ~ Show Festival Lelaki Ratu Minako ~ 111816-006 Tanpa sensor 2025-08-29 01:09:30 API
263946 FC2-PPV-4501274 Menes, 18 tahun, si cantik bermông besar yang menggoda! Satu misi pelik telah ditetapkan. [Ulasan belum selesai] FC2-PPV-4501274 Tanpa sensor 2025-08-29 01:09:20 API
263944 030921-444 Adik perempuan kawan baik saya rupa-rupanya memang betina murahan! 030921-444 Tanpa sensor 2025-08-29 01:09:00 API
263943 CUS-1837 Spesial Luar Bangunan CUS-1837 AV Cina 2025-08-29 01:08:50 API
263942 100120_001 Sari Nakamura-Sari Nakamura Special Edition- 100120_001 Tanpa sensor 2025-08-29 01:08:40 API
263941 C0930-KI211102 Narumi Nakane, 20 tahun C0930-KI211102 Tanpa sensor 2025-08-29 01:08:30 API
263940 062221-01 Aku diperkenalkan dengan perempuan gila seks yang berdarah besar dan kulit lembap seksi 062221-01 Tanpa sensor 2025-08-29 01:08:20 API